Time,TemperatureF,DewpointF,PressureIn,WindDirection,WindDirectionDegrees,WindSpeedMPH,WindSpeedGustMPH,Humidity,HourlyPrecipIn,Conditions,Clouds,dailyrainin,SoftwareType,DateUTC
2013-02-24 00:00:00,22.7,19.0,29.95,SW,235,0.0,1.0,84,0.00,,,0.08,weatherlink.com 1.10,2013-02-24 05:00:00,
2013-02-24 00:15:00,21.9,18.0,29.95,SW,235,0.0,1.0,85,0.00,,,0.00,weatherlink.com 1.10,2013-02-24 05:15:00,
2013-02-24 00:30:00,21.1,17.0,29.95,SW,235,0.0,1.0,85,0.00,,,0.00,weatherlink.com 1.10,2013-02-24 05:30:00,
2013-02-24 00:45:00,20.6,18.0,29.95,SW,221,0.0,3.0,89,0.00,,,0.00,weatherlink.com 1.10,2013-02-24 05:45:00,
2013-02-24 01:00:00,20.4,18.0,29.95,SW,221,0.0,1.0,89,0.00,,,0.00,weatherlink.com 1.10,2013-02-24 06:00:00,
2013-02-24 01:15:00,20.7,18.0,29.95,South,178,1.0,3.0,90,0.00,,,0.00,weatherlink.com 1.10,2013-02-24 06:15:00,
2013-02-24 01:30:00,21.5,19.0,29.96,South,178,0.0,2.0,90,0.00,,,0.00,weatherlink.com 1.10,2013-02-24 06:30:00,
2013-02-24 01:45:00,21.7,19.0,29.96,SSW,200,1.0,5.0,89,0.00,,,0.00,weatherlink.com 1.10,2013-02-24 06:45:00,
2013-02-24 02:00:00,21.9,19.0,29.97,SSW,203,0.0,2.0,88,0.00,,,0.00,weatherlink.com 1.10,2013-02-24 07:00:00,
2013-02-24 02:16:00,22.0,19.0,29.97,SSW,207,1.0,3.0,89,0.00,,,0.00,weatherlink.com 1.10,2013-02-24 07:16:00,
2013-02-24 02:31:00,22.2,20.0,29.97,SW,217,2.0,3.0,89,0.00,,,0.00,weatherlink.com 1.10,2013-02-24 07:31:00,
2013-02-24 02:46:00,22.5,20.0,29.97,SSW,199,1.0,2.0,89,0.00,,,0.00,weatherlink.com 1.10,2013-02-24 07:46:00,
2013-02-24 03:01:00,22.8,20.0,29.98,SSW,207,0.0,4.0,90,0.00,,,0.00,weatherlink.com 1.10,2013-02-24 08:01:00,
2013-02-24 03:16:00,23.0,21.0,29.98,WSW,244,1.0,3.0,90,0.00,,,0.00,weatherlink.com 1.10,2013-02-24 08:16:00,
2013-02-24 03:31:00,23.1,21.0,29.98,SSW,201,1.0,2.0,91,0.00,,,0.00,weatherlink.com 1.10,2013-02-24 08:31:00,
2013-02-24 03:46:00,22.9,21.0,29.98,SSW,192,1.0,2.0,91,0.00,,,0.00,weatherlink.com 1.10,2013-02-24 08:46:00,
2013-02-24 04:01:00,22.5,20.0,29.98,SSW,193,1.0,2.0,90,0.00,,,0.00,weatherlink.com 1.10,2013-02-24 09:01:00,
2013-02-24 04:16:00,22.3,20.0,29.98,SSW,211,1.0,2.0,91,0.00,,,0.00,weatherlink.com 1.10,2013-02-24 09:16:00,
2013-02-24 04:31:00,22.2,20.0,29.98,SSW,206,0.0,2.0,91,0.00,,,0.00,weatherlink.com 1.10,2013-02-24 09:31:00,
2013-02-24 04:46:00,22.4,20.0,29.98,SW,222,0.0,3.0,91,0.00,,,0.00,weatherlink.com 1.10,2013-02-24 09:46:00,
2013-02-24 05:01:00,22.3,20.0,29.98,SW,215,0.0,1.0,91,0.00,,,0.00,weatherlink.com 1.10,2013-02-24 10:01:00,
2013-02-24 05:16:00,22.3,20.0,29.98,SW,215,1.0,2.0,91,0.00,,,0.00,weatherlink.com 1.10,2013-02-24 10:16:00,
2013-02-24 05:31:00,22.4,20.0,29.98,SW,215,1.0,2.0,91,0.00,,,0.00,weatherlink.com 1.10,2013-02-24 10:31:00,
2013-02-24 05:46:00,22.5,20.0,29.99,SSW,205,0.0,2.0,91,0.00,,,0.00,weatherlink.com 1.10,2013-02-24 10:46:00,
2013-02-24 06:01:00,22.6,20.0,30.00,SSW,207,0.0,2.0,91,0.00,,,0.00,weatherlink.com 1.10,2013-02-24 11:01:00,
2013-02-24 06:16:00,22.8,21.0,30.00,SW,217,0.0,3.0,91,0.00,,,0.00,weatherlink.com 1.10,2013-02-24 11:16:00,
2013-02-24 06:31:00,22.7,20.0,30.01,SSW,209,1.0,2.0,90,0.00,,,0.00,weatherlink.com 1.10,2013-02-24 11:31:00,
2013-02-24 06:46:00,22.6,20.0,30.01,SW,214,1.0,3.0,90,0.00,,,0.00,weatherlink.com 1.10,2013-02-24 11:46:00,
2013-02-24 07:01:00,22.3,20.0,30.01,SW,214,0.0,2.0,90,0.00,,,0.00,weatherlink.com 1.10,2013-02-24 12:01:00,
2013-02-24 07:16:00,21.8,19.0,30.02,SW,214,0.0,0.0,89,0.00,,,0.00,weatherlink.com 1.10,2013-02-24 12:16:00,
2013-02-24 07:31:00,21.1,18.0,30.02,SW,214,0.0,0.0,88,0.00,,,0.00,weatherlink.com 1.10,2013-02-24 12:31:00,
2013-02-24 07:46:00,20.4,18.0,30.02,SW,214,0.0,1.0,89,0.00,,,0.00,weatherlink.com 1.10,2013-02-24 12:46:00,
2013-02-24 08:01:00,20.5,19.0,30.03,SW,214,0.0,2.0,92,0.00,,,0.00,weatherlink.com 1.10,2013-02-24 13:01:00,
2013-02-24 08:16:00,22.4,21.0,30.03,SSW,194,1.0,2.0,94,0.00,,,0.00,weatherlink.com 1.10,2013-02-24 13:16:00,
2013-02-24 08:31:00,23.6,22.0,30.03,SW,215,1.0,3.0,92,0.00,,,0.00,weatherlink.com 1.10,2013-02-24 13:31:00,
2013-02-24 08:46:00,24.4,22.0,30.04,SW,225,1.0,4.0,91,0.00,,,0.00,weatherlink.com 1.10,2013-02-24 13:46:00,
2013-02-24 09:01:00,25.4,23.0,30.04,WSW,257,1.0,4.0,90,0.00,,,0.00,weatherlink.com 1.10,2013-02-24 14:01:00,
2013-02-24 09:16:00,26.4,24.0,30.04,SW,223,1.0,4.0,89,0.00,,,0.00,weatherlink.com 1.10,2013-02-24 14:16:00,
2013-02-24 09:31:00,27.2,24.0,30.05,SW,225,2.0,5.0,88,0.00,,,0.00,weatherlink.com 1.10,2013-02-24 14:31:00,
2013-02-24 09:47:00,28.1,25.0,30.05,South,189,1.0,5.0,87,0.00,,,0.00,weatherlink.com 1.10,2013-02-24 14:47:00,
2013-02-24 10:01:00,29.0,25.0,30.05,WSW,238,1.0,5.0,85,0.00,,,0.00,weatherlink.com 1.10,2013-02-24 15:01:00,
2013-02-24 10:16:00,28.9,25.0,30.05,SW,231,1.0,6.0,86,0.00,,,0.00,weatherlink.com 1.10,2013-02-24 15:16:00,
2013-02-24 10:31:00,29.8,26.0,30.06,SW,236,1.0,7.0,85,0.00,,,0.00,weatherlink.com 1.10,2013-02-24 15:31:00,
2013-02-24 10:46:00,30.2,26.0,30.06,SW,229,1.0,6.0,84,0.00,,,0.00,weatherlink.com 1.10,2013-02-24 15:46:00,
2013-02-24 11:02:00,31.2,27.0,30.07,SSW,194,1.0,5.0,83,0.00,,,0.00,weatherlink.com 1.10,2013-02-24 16:02:00,
2013-02-24 11:17:00,31.9,26.0,30.07,WSW,240,2.0,4.0,80,0.00,,,0.00,weatherlink.com 1.10,2013-02-24 16:17:00,
2013-02-24 11:32:00,32.5,27.0,30.07,SSW,209,3.0,6.0,79,0.01,,,0.01,weatherlink.com 1.10,2013-02-24 16:32:00,
2013-02-24 11:47:00,33.1,27.0,30.07,SW,226,2.0,7.0,77,0.01,,,0.01,weatherlink.com 1.10,2013-02-24 16:47:00,
2013-02-24 12:02:00,33.9,26.0,30.07,NNW,336,2.0,7.0,74,0.02,,,0.02,weatherlink.com 1.10,2013-02-24 17:02:00,
2013-02-24 12:17:00,34.3,26.0,30.08,West,274,1.0,8.0,73,0.02,,,0.02,weatherlink.com 1.10,2013-02-24 17:17:00,
2013-02-24 12:32:00,34.5,26.0,30.07,South,169,3.0,6.0,72,0.01,,,0.02,weatherlink.com 1.10,2013-02-24 17:32:00,
2013-02-24 12:47:00,34.7,26.0,30.08,West,261,2.0,10.0,70,0.02,,,0.03,weatherlink.com 1.10,2013-02-24 17:47:00,
2013-02-24 13:02:00,34.4,26.0,30.08,NNE,30,3.0,7.0,72,0.02,,,0.04,weatherlink.com 1.10,2013-02-24 18:02:00,
2013-02-24 13:17:00,34.4,26.0,30.08,SW,220,2.0,6.0,72,0.02,,,0.04,weatherlink.com 1.10,2013-02-24 18:17:00,
2013-02-24 13:32:00,35.8,27.0,30.08,West,267,1.0,6.0,70,0.02,,,0.04,weatherlink.com 1.10,2013-02-24 18:32:00,
2013-02-24 13:47:00,35.2,26.0,30.08,North,5,2.0,5.0,70,0.01,,,0.04,weatherlink.com 1.10,2013-02-24 18:47:00,
2013-02-24 14:02:00,34.4,26.0,30.08,West,276,2.0,4.0,72,0.01,,,0.05,weatherlink.com 1.10,2013-02-24 19:02:00,
2013-02-24 14:17:00,34.3,26.0,30.09,SW,226,1.0,7.0,72,0.01,,,0.05,weatherlink.com 1.10,2013-02-24 19:17:00,
2013-02-24 14:32:00,34.8,26.0,30.09,North,5,4.0,6.0,70,0.01,,,0.05,weatherlink.com 1.10,2013-02-24 19:32:00,
2013-02-24 14:47:00,34.4,26.0,30.09,NW,319,1.0,5.0,70,0.01,,,0.05,weatherlink.com 1.10,2013-02-24 19:47:00,
2013-02-24 15:02:00,34.7,26.0,30.09,WNW,294,2.0,7.0,70,0.00,,,0.05,weatherlink.com 1.10,2013-02-24 20:02:00,
2013-02-24 15:17:00,34.8,26.0,30.09,North,9,1.0,5.0,69,0.00,,,0.05,weatherlink.com 1.10,2013-02-24 20:17:00,
2013-02-24 15:32:00,34.9,25.0,30.10,NW,311,1.0,5.0,68,0.01,,,0.06,weatherlink.com 1.10,2013-02-24 20:32:00,
2013-02-24 15:47:00,35.2,25.0,30.11,NNW,331,5.0,8.0,67,0.01,,,0.06,weatherlink.com 1.10,2013-02-24 20:47:00,
2013-02-24 16:02:00,35.1,25.0,30.11,NNW,343,3.0,6.0,68,0.01,,,0.06,weatherlink.com 1.10,2013-02-24 21:02:00,
2013-02-24 16:17:00,35.0,26.0,30.12,North,350,2.0,8.0,69,0.01,,,0.06,weatherlink.com 1.10,2013-02-24 21:17:00,
2013-02-24 16:32:00,35.0,26.0,30.12,NNW,332,4.0,5.0,69,0.00,,,0.06,weatherlink.com 1.10,2013-02-24 21:32:00,
2013-02-24 16:47:00,34.9,26.0,30.12,NNW,346,1.0,5.0,69,0.00,,,0.06,weatherlink.com 1.10,2013-02-24 21:47:00,
2013-02-24 17:02:00,35.1,26.0,30.12,West,261,1.0,4.0,70,0.00,,,0.06,weatherlink.com 1.10,2013-02-24 22:02:00,
2013-02-24 17:17:00,35.4,26.0,30.13,WSW,258,2.0,5.0,69,0.00,,,0.06,weatherlink.com 1.10,2013-02-24 22:17:00,
2013-02-24 17:32:00,35.1,26.0,30.14,WSW,240,2.0,4.0,70,0.00,,,0.06,weatherlink.com 1.10,2013-02-24 22:32:00,
2013-02-24 17:47:00,34.7,26.0,30.14,North,360,0.0,4.0,71,0.00,,,0.06,weatherlink.com 1.10,2013-02-24 22:47:00,
2013-02-24 18:02:00,34.4,26.0,30.14,North,355,0.0,4.0,71,0.00,,,0.06,weatherlink.com 1.10,2013-02-24 23:02:00,
2013-02-24 18:17:00,34.1,26.0,30.15,SW,221,0.0,3.0,71,0.00,,,0.06,weatherlink.com 1.10,2013-02-24 23:17:00,
2013-02-24 18:33:00,33.6,25.0,30.16,SW,221,0.0,1.0,71,0.00,,,0.06,weatherlink.com 1.10,2013-02-24 23:33:00,
2013-02-24 18:48:00,33.2,25.0,30.16,SW,221,0.0,0.0,73,0.00,,,0.06,weatherlink.com 1.10,2013-02-24 23:48:00,
2013-02-24 19:03:00,32.7,26.0,30.17,SW,221,0.0,0.0,75,0.00,,,0.06,weatherlink.com 1.10,2013-02-25 00:03:00,
2013-02-24 19:18:00,32.2,25.0,30.17,SW,221,0.0,0.0,76,0.00,,,0.06,weatherlink.com 1.10,2013-02-25 00:18:00,
2013-02-24 19:33:00,31.6,25.0,30.17,SW,221,0.0,0.0,76,0.00,,,0.06,weatherlink.com 1.10,2013-02-25 00:33:00,
2013-02-24 19:48:00,31.0,25.0,30.18,SW,221,0.0,0.0,77,0.00,,,0.06,weatherlink.com 1.10,2013-02-25 00:48:00,
2013-02-24 20:03:00,30.4,24.0,30.18,SW,221,0.0,0.0,77,0.00,,,0.06,weatherlink.com 1.10,2013-02-25 01:03:00,
2013-02-24 20:18:00,29.3,23.0,30.18,SW,221,0.0,0.0,78,0.00,,,0.06,weatherlink.com 1.10,2013-02-25 01:18:00,
2013-02-24 20:33:00,28.1,22.0,30.19,SW,221,0.0,0.0,79,0.00,,,0.06,weatherlink.com 1.10,2013-02-25 01:33:00,
2013-02-24 20:48:00,27.0,22.0,30.19,SW,221,0.0,1.0,81,0.00,,,0.06,weatherlink.com 1.10,2013-02-25 01:48:00,
2013-02-24 21:03:00,26.3,21.0,30.19,SW,221,0.0,0.0,81,0.00,,,0.06,weatherlink.com 1.10,2013-02-25 02:03:00,
2013-02-24 21:18:00,25.5,21.0,30.19,SW,221,0.0,0.0,82,0.00,,,0.06,weatherlink.com 1.10,2013-02-25 02:18:00,
2013-02-24 21:33:00,24.9,21.0,30.19,SW,221,0.0,0.0,84,0.00,,,0.06,weatherlink.com 1.10,2013-02-25 02:33:00,
2013-02-24 21:48:00,24.4,21.0,30.20,SW,221,0.0,0.0,86,0.00,,,0.06,weatherlink.com 1.10,2013-02-25 02:48:00,
2013-02-24 22:03:00,24.0,21.0,30.20,SW,221,0.0,0.0,88,0.00,,,0.06,weatherlink.com 1.10,2013-02-25 03:03:00,
2013-02-24 22:18:00,23.9,21.0,30.20,SW,221,0.0,0.0,89,0.00,,,0.06,weatherlink.com 1.10,2013-02-25 03:18:00,
2013-02-24 22:33:00,24.2,22.0,30.21,SW,221,0.0,1.0,91,0.00,,,0.06,weatherlink.com 1.10,2013-02-25 03:33:00,
2013-02-24 22:48:00,24.4,22.0,30.21,SW,221,0.0,0.0,91,0.00,,,0.06,weatherlink.com 1.10,2013-02-25 03:48:00,
2013-02-24 23:03:00,24.6,22.0,30.20,SW,221,0.0,1.0,91,0.00,,,0.06,weatherlink.com 1.10,2013-02-25 04:03:00,
2013-02-24 23:18:00,24.5,22.0,30.20,SW,221,0.0,0.0,89,0.00,,,0.06,weatherlink.com 1.10,2013-02-25 04:18:00,
2013-02-24 23:33:00,24.0,21.0,30.20,SW,221,0.0,0.0,88,0.00,,,0.06,weatherlink.com 1.10,2013-02-25 04:33:00,
2013-02-24 23:48:00,23.4,20.0,30.20,SW,221,0.0,0.0,87,0.00,,,0.06,weatherlink.com 1.10,2013-02-25 04:48:00,